TimeAKST,TemperatureF,Dew PointF,Humidity,Sea Level PressureIn,VisibilityMPH,Wind Direction,Wind SpeedMPH,Gust SpeedMPH,PrecipitationIn,Events,Conditions,WindDirDegrees,DateUTC
12:16 AM,-18.4,-9999,N/A,30.36,10.0,South,17.3,-,N/A,,Clear,180,2012-12-21 09:16:00
12:36 AM,-16.6,-29.2,53,30.35,10.0,South,20.7,-,N/A,,Clear,180,2012-12-21 09:36:00
12:56 AM,-18.4,-29.2,58,30.36,10.0,South,17.3,-,N/A,,Clear,170,2012-12-21 09:56:00
1:16 AM,-14.8,-23.8,64,30.36,10.0,South,20.7,-,N/A,,Clear,190,2012-12-21 10:16:00
1:36 AM,-16.6,-27.4,58,30.36,10.0,South,15.0,-,N/A,,Clear,190,2012-12-21 10:36:00
1:56 AM,-18.4,-9999,N/A,30.36,10.0,South,15.0,-,N/A,,Clear,190,2012-12-21 10:56:00
2:16 AM,-16.6,-9999,N/A,30.35,10.0,South,15.0,-,N/A,,Clear,190,2012-12-21 11:16:00
2:36 AM,-16.6,-29.2,53,30.35,10.0,South,16.1,-,N/A,,Clear,190,2012-12-21 11:36:00
2:56 AM,-16.6,-29.2,53,30.35,10.0,SSW,16.1,-,N/A,,Clear,200,2012-12-21 11:56:00
3:16 AM,-16.6,-29.2,53,30.34,10.0,South,16.1,-,N/A,,Clear,180,2012-12-21 12:16:00
3:36 AM,-16.6,-29.2,53,30.34,10.0,South,15.0,-,N/A,,Clear,180,2012-12-21 12:36:00
3:56 AM,-16.6,-29.2,53,30.33,10.0,South,19.6,-,N/A,,Clear,180,2012-12-21 12:56:00
4:16 AM,-16.6,-29.2,53,30.33,10.0,South,18.4,-,N/A,,Clear,190,2012-12-21 13:16:00
4:36 AM,-16.6,-27.4,58,30.33,10.0,South,18.4,-,N/A,,Clear,180,2012-12-21 13:36:00
4:56 AM,-16.6,-29.2,53,30.33,10.0,South,21.9,-,N/A,,Clear,180,2012-12-21 13:56:00
5:16 AM,-14.8,-25.6,58,30.33,10.0,South,20.7,-,N/A,,Clear,180,2012-12-21 14:16:00
5:36 AM,-14.8,-25.6,58,30.33,10.0,South,23.0,-,N/A,,Clear,170,2012-12-21 14:36:00
5:56 AM,-14.8,-27.4,53,30.32,10.0,South,21.9,-,N/A,,Clear,170,2012-12-21 14:56:00
6:16 AM,-14.8,-25.6,58,30.32,10.0,South,19.6,-,N/A,,Clear,180,2012-12-21 15:16:00
6:36 AM,-13.0,-27.4,49,30.31,10.0,South,23.0,-,N/A,,Clear,180,2012-12-21 15:36:00
6:56 AM,-14.8,-25.6,58,30.32,10.0,South,24.2,-,N/A,,Clear,180,2012-12-21 15:56:00
7:16 AM,-13.0,-27.4,49,30.32,10.0,South,20.7,-,N/A,,Clear,170,2012-12-21 16:16:00
7:36 AM,-13.0,-25.6,53,30.31,10.0,South,20.7,-,N/A,,Clear,180,2012-12-21 16:36:00
7:56 AM,-13.0,-25.6,53,30.32,10.0,South,18.4,-,N/A,,Clear,180,2012-12-21 16:56:00
8:16 AM,-11.2,-23.8,54,30.31,10.0,South,20.7,26.5,N/A,,Clear,190,2012-12-21 17:16:00
8:36 AM,-14.8,-27.4,53,30.31,10.0,South,17.3,-,N/A,,Clear,190,2012-12-21 17:36:00
8:56 AM,-11.2,-27.4,45,30.31,10.0,South,20.7,-,N/A,,Clear,180,2012-12-21 17:56:00
9:16 AM,-11.2,-23.8,54,30.31,10.0,South,20.7,26.5,N/A,,Clear,190,2012-12-21 18:16:00
9:36 AM,-11.2,-27.4,45,30.31,10.0,South,19.6,-,N/A,,Clear,190,2012-12-21 18:36:00
9:56 AM,-11.2,-27.4,45,30.31,10.0,South,18.4,-,N/A,,Clear,190,2012-12-21 18:56:00
10:16 AM,-11.2,-23.8,54,30.30,9.0,South,20.7,-,N/A,,Clear,180,2012-12-21 19:16:00
10:36 AM,-11.2,-23.8,54,30.30,10.0,South,20.7,-,N/A,,Clear,180,2012-12-21 19:36:00
10:56 AM,-11.2,-27.4,45,30.30,10.0,South,20.7,-,N/A,,Clear,180,2012-12-21 19:56:00
11:16 AM,-11.2,-27.4,45,30.29,10.0,South,21.9,-,N/A,,Clear,180,2012-12-21 20:16:00
11:36 AM,-11.2,-25.6,49,30.29,10.0,South,21.9,-,N/A,,Clear,190,2012-12-21 20:36:00
11:56 AM,-9.4,-23.8,49,30.30,10.0,South,21.9,-,N/A,,Clear,170,2012-12-21 20:56:00
12:16 PM,-9.4,-25.6,45,30.30,10.0,South,20.7,-,N/A,,Clear,170,2012-12-21 21:16:00
12:36 PM,-11.2,-25.6,49,30.30,10.0,South,20.7,-,N/A,,Clear,180,2012-12-21 21:36:00
12:56 PM,-9.4,-25.6,45,30.30,10.0,South,23.0,-,N/A,,Clear,180,2012-12-21 21:56:00
1:16 PM,-11.2,-27.4,45,30.30,10.0,South,21.9,-,N/A,,Clear,180,2012-12-21 22:16:00
1:36 PM,-9.4,-27.4,41,30.29,10.0,South,20.7,-,N/A,,Clear,170,2012-12-21 22:36:00
1:56 PM,-11.2,-25.6,49,30.30,10.0,South,19.6,-,N/A,,Clear,180,2012-12-21 22:56:00
2:16 PM,-9.4,-25.6,45,30.30,10.0,South,19.6,-,N/A,,Clear,180,2012-12-21 23:16:00
2:36 PM,-9.4,-25.6,45,30.29,10.0,South,18.4,24.2,N/A,,Clear,180,2012-12-21 23:36:00
2:56 PM,-11.2,-27.4,45,30.29,10.0,South,18.4,-,N/A,,Clear,170,2012-12-21 23:56:00
3:16 PM,-9.4,-25.6,45,30.28,10.0,South,19.6,-,N/A,,Clear,190,2012-12-22 00:16:00
3:36 PM,-9.4,-25.6,45,30.28,5.0,South,24.2,-,N/A,,Clear,180,2012-12-22 00:36:00
3:56 PM,-7.6,-23.8,45,30.27,5.0,South,20.7,-,N/A,,Clear,180,2012-12-22 00:56:00
4:16 PM,-9.4,-27.4,41,30.27,10.0,South,20.7,-,N/A,,Clear,170,2012-12-22 01:16:00
4:36 PM,-9.4,-25.6,45,30.27,10.0,South,18.4,-,N/A,,Clear,190,2012-12-22 01:36:00
4:56 PM,-9.4,-23.8,49,30.26,10.0,South,19.6,25.3,N/A,,Clear,180,2012-12-22 01:56:00
5:16 PM,-9.4,-25.6,45,30.26,10.0,South,19.6,-,N/A,,Clear,180,2012-12-22 02:16:00
5:36 PM,-9.4,-27.4,41,30.25,10.0,South,19.6,-,N/A,,Clear,180,2012-12-22 02:36:00
5:56 PM,-9.4,-23.8,49,30.25,10.0,South,20.7,-,N/A,,Clear,180,2012-12-22 02:56:00
6:16 PM,-9.4,-23.8,49,30.25,10.0,South,20.7,-,N/A,,Clear,180,2012-12-22 03:16:00
6:36 PM,-9.4,-25.6,45,30.25,10.0,South,13.8,-,N/A,,Clear,170,2012-12-22 03:36:00
6:56 PM,-9.4,-25.6,45,30.24,10.0,South,18.4,-,N/A,,Clear,170,2012-12-22 03:56:00
7:16 PM,-9.4,-25.6,45,30.24,10.0,SSW,11.5,-,N/A,,Clear,200,2012-12-22 04:16:00
7:36 PM,-9.4,-25.6,45,30.24,10.0,South,20.7,-,N/A,,Clear,170,2012-12-22 04:36:00
7:56 PM,-7.6,-25.6,41,30.24,10.0,South,20.7,-,N/A,,Clear,180,2012-12-22 04:56:00
8:16 PM,-9.4,-27.4,41,30.24,10.0,South,19.6,-,N/A,,Clear,180,2012-12-22 05:16:00
8:36 PM,-9.4,-23.8,49,30.23,10.0,South,19.6,-,N/A,,Clear,180,2012-12-22 05:36:00
8:56 PM,-7.6,-22.0,50,30.23,10.0,South,19.6,-,N/A,,Clear,180,2012-12-22 05:56:00
9:16 PM,-7.6,-23.8,45,30.23,10.0,South,21.9,-,N/A,,Clear,180,2012-12-22 06:16:00
9:36 PM,-7.6,-25.6,41,30.22,10.0,South,19.6,-,N/A,,Clear,180,2012-12-22 06:36:00
9:56 PM,-9.4,-25.6,45,30.22,10.0,South,19.6,-,N/A,,Clear,180,2012-12-22 06:56:00
10:16 PM,-7.6,-23.8,45,30.23,10.0,South,20.7,-,N/A,,Clear,170,2012-12-22 07:16:00
10:36 PM,-7.6,-25.6,41,30.23,10.0,South,20.7,-,N/A,,Clear,180,2012-12-22 07:36:00
10:56 PM,-7.6,-25.6,41,30.23,10.0,South,20.7,-,N/A,,Clear,180,2012-12-22 07:56:00
11:16 PM,-7.6,-23.8,45,30.23,10.0,South,19.6,-,N/A,,Clear,180,2012-12-22 08:16:00
11:36 PM,-7.6,-22.0,50,30.23,10.0,South,18.4,-,N/A,,Clear,190,2012-12-22 08:36:00
11:56 PM,-9.4,-27.4,41,30.23,10.0,South,17.3,-,N/A,,Clear,180,2012-12-22 08:56:00